Weather History for KMTJ - June, 2013

Change the Weather History Date:

Saturday, June 1, 2013

  Actual Average Record
Temperature  
Mean Temperature 56 °F 64 °F  
Max Temperature 74 °F 80 °F 91 °F (2002)
Min Temperature 37 °F 48 °F 37 °F (2013)
Degree Days  
Heating Degree Days 9 3  
Month to date heating degree days 9 3  
Since 1 June heating degree days 9 3  
Since 1 July heating degree days 6124 6167  
Cooling Degree Days 0 2  
Month to date cooling degree days 0 2  
Year to date cooling degree days 25 19  
Since 1 June cooling degree days 0 2  
Growing Degree Days 6 (Base 50)    
Moisture  
Dew Point 21 °F    
Average Humidity 29    
Maximum Humidity 44    
Minimum Humidity 14    
Precipitation  
Precipitation 0.00 in 0.03 in 0.04 in (2003)
Month to date precipitation 0.00 0.03  
Year to date precipitation 2.65 4.33  
Sea Level Pressure  
Sea Level Pressure 30.07 in    
Wind  
Wind Speed 6 mph (SE)    
Max Wind Speed 15 mph    
Max Gust Speed 18 mph    
Visibility 10 miles    
Events      
T = Trace of Precipitation, MM = Missing Value Source: NWS Daily Summary

Daily Weather History Graph

Daily Weather History Graph

Search for Another Location

Airport or City:

Trip Planner

Search our weather history database for the weather conditions in past years. The results will help you decide how hot, cold, wet, or windy it might be!

Date:

Astronomy

Jun. 01, 2013 Rise Set
Actual Time 5:49 AM MDT 8:30 PM MDT
Civil Twilight 5:18 AM MDT 9:01 PM MDT
Nautical Twilight 4:39 AM MDT 9:40 PM MDT
Astronomical Twilight 3:55 AM MDT 10:24 PM MDT
Moon 1:41 AM MDT (6/1) 2:06 PM MDT (6/1)
Length of Visible Light 15h 43m
Length of Day
14h 41m
Last Quarter, 40% of the Moon is Illuminated
Jun 1
Last Quarter
Jun 8
New
Jun 16
First Quarter
Jun 23
Full
Jun 29
Last Quarter

Hourly Weather History & Observations

Time (MDT) Temp. Windchill Dew Point Humidity Pressure Visibility Wind Dir Wind Speed Gust Speed Precip Events Conditions
12:53 AM 44.1 °F 40.1 °F 18.0 °F 35% 30.05 in 10.0 mi SSE 6.9 mph - N/A   Clear
1:53 AM 43.0 °F 39.5 °F 17.1 °F 35% 30.08 in 10.0 mi SE 5.8 mph - N/A   Clear
2:53 AM 39.9 °F 35.8 °F 19.9 °F 45% 30.09 in 10.0 mi South 5.8 mph - N/A   Clear
3:53 AM 39.9 °F 35.1 °F 19.9 °F 45% 30.10 in 10.0 mi SSE 6.9 mph - N/A   Clear
4:53 AM 39.0 °F 33.4 °F 19.9 °F 46% 30.12 in 10.0 mi SSE 8.1 mph - N/A   Clear
5:53 AM 39.0 °F 32.8 °F 19.9 °F 46% 30.13 in 10.0 mi SE 9.2 mph - N/A   Clear
6:53 AM 44.1 °F 39.5 °F 19.9 °F 38% 30.14 in 10.0 mi SSE 8.1 mph - N/A   Clear
7:53 AM 50.0 °F - 21.0 °F 32% 30.13 in 10.0 mi SE 5.8 mph - N/A   Clear
8:53 AM 55.9 °F - 21.9 °F 27% 30.12 in 10.0 mi Variable 3.5 mph - N/A   Clear
9:53 AM 59.0 °F - 19.9 °F 22% 30.13 in 10.0 mi East 4.6 mph - N/A   Clear
10:53 AM 62.1 °F - 19.0 °F 19% 30.13 in 10.0 mi Variable 3.5 mph - N/A   Clear
11:53 AM 64.0 °F - 18.0 °F 17% 30.14 in 10.0 mi Variable 3.5 mph - N/A   Clear
12:53 PM 66.0 °F - 17.1 °F 15% 30.11 in 10.0 mi Calm Calm - N/A   Clear
1:53 PM 66.9 °F - 18.0 °F 15% 30.09 in 10.0 mi Variable 4.6 mph - N/A   Clear
2:53 PM 70.0 °F - 19.0 °F 14% 30.07 in 10.0 mi Variable 5.8 mph - N/A   Clear
3:53 PM 72.0 °F - 19.9 °F 14% 30.05 in 10.0 mi NE 6.9 mph - N/A   Clear
4:53 PM 72.0 °F - 19.9 °F 14% 30.02 in 10.0 mi Calm Calm - N/A   Clear
5:53 PM 73.0 °F - 21.0 °F 14% 30.01 in 10.0 mi Calm Calm - N/A   Clear
6:53 PM 73.0 °F - 21.0 °F 14% 29.98 in 10.0 mi NE 6.9 mph - N/A   Clear
7:53 PM 71.1 °F - 23.0 °F 16% 29.96 in 10.0 mi NNW 3.5 mph - N/A   Clear
8:53 PM 66.0 °F - 30.0 °F 26% 29.96 in 10.0 mi SW 3.5 mph - N/A   Clear
9:53 PM 57.9 °F - 30.0 °F 35% 30.00 in 10.0 mi SE 9.2 mph - N/A   Clear
10:53 PM 55.9 °F - 25.0 °F 30% 30.01 in 10.0 mi SE 9.2 mph - N/A   Clear
11:53 PM 55.0 °F - 21.9 °F 28% 30.01 in 10.0 mi SE 11.5 mph - N/A   Clear